TimeCST,TemperatureF,Dew PointF,Humidity,Sea Level PressureIn,VisibilityMPH,Wind Direction,Wind SpeedMPH,Gust SpeedMPH,PrecipitationIn,Events,Conditions,WindDirDegrees,DateUTC
12:15 AM,41.7,40.5,95,29.99,10.0,Calm,Calm,-,N/A,,Clear,0,2013-02-24 06:15:00
12:35 AM,41.2,40.5,97,30.00,10.0,Calm,Calm,-,N/A,,Clear,0,2013-02-24 06:35:00
12:55 AM,40.6,40.3,99,30.00,10.0,Calm,Calm,-,N/A,,Clear,0,2013-02-24 06:55:00
1:15 AM,39.7,39.4,99,30.00,10.0,Calm,Calm,-,N/A,,Clear,0,2013-02-24 07:15:00
1:35 AM,39.0,38.5,98,30.00,10.0,Calm,Calm,-,N/A,,Clear,0,2013-02-24 07:35:00
1:55 AM,39.2,38.8,99,29.99,10.0,Calm,Calm,-,N/A,,Clear,0,2013-02-24 07:55:00
2:15 AM,39.6,38.8,97,29.98,10.0,Calm,Calm,-,N/A,,Clear,0,2013-02-24 08:15:00
2:35 AM,38.5,38.3,99,29.98,10.0,Calm,Calm,-,N/A,,Clear,0,2013-02-24 08:35:00
2:55 AM,38.8,38.1,97,29.97,10.0,Calm,Calm,-,N/A,,Clear,0,2013-02-24 08:55:00
3:15 AM,37.9,37.6,99,29.96,10.0,Calm,Calm,-,N/A,,Clear,0,2013-02-24 09:15:00
3:35 AM,38.7,38.3,99,29.96,10.0,Calm,Calm,-,N/A,,Clear,0,2013-02-24 09:35:00
3:55 AM,40.5,38.5,93,29.97,10.0,Calm,Calm,-,N/A,,Clear,0,2013-02-24 09:55:00
4:15 AM,40.5,38.3,92,29.97,10.0,Calm,Calm,-,N/A,,Clear,0,2013-02-24 10:15:00
4:35 AM,39.7,37.4,91,29.97,10.0,East,3.5,-,N/A,,Clear,80,2013-02-24 10:35:00
4:55 AM,39.2,37.2,93,29.97,10.0,Calm,Calm,-,N/A,,Clear,0,2013-02-24 10:55:00
5:15 AM,38.7,37.0,94,29.98,10.0,Calm,Calm,-,N/A,,Clear,0,2013-02-24 11:15:00
5:35 AM,36.7,36.0,97,29.98,10.0,Calm,Calm,-,N/A,,Clear,0,2013-02-24 11:35:00
5:55 AM,36.0,35.4,98,29.98,10.0,Calm,Calm,-,N/A,,Clear,0,2013-02-24 11:55:00
6:15 AM,37.0,36.9,99,29.99,10.0,Calm,Calm,-,N/A,,Clear,0,2013-02-24 12:15:00
6:35 AM,36.5,36.0,98,29.99,10.0,Calm,Calm,-,N/A,,Clear,0,2013-02-24 12:35:00
6:55 AM,36.5,36.3,99,30.00,10.0,Calm,Calm,-,N/A,,Clear,0,2013-02-24 12:55:00
7:15 AM,38.8,36.0,89,30.01,10.0,East,3.5,-,N/A,,Clear,90,2013-02-24 13:15:00
7:35 AM,40.8,37.0,86,30.01,10.0,Calm,Calm,-,N/A,,Clear,0,2013-02-24 13:35:00
7:55 AM,42.8,37.4,81,30.02,10.0,East,3.5,-,N/A,,Clear,100,2013-02-24 13:55:00
8:15 AM,43.7,38.1,81,30.02,10.0,ESE,5.8,-,N/A,,Clear,110,2013-02-24 14:15:00
8:35 AM,45.1,37.2,74,30.02,10.0,East,9.2,-,N/A,,Clear,100,2013-02-24 14:35:00
8:55 AM,46.9,37.9,71,30.02,10.0,East,9.2,-,N/A,,Clear,90,2013-02-24 14:55:00
9:15 AM,49.3,38.3,66,30.02,10.0,East,6.9,-,N/A,,Clear,90,2013-02-24 15:15:00
9:35 AM,51.3,38.1,61,30.02,10.0,East,5.8,-,N/A,,Clear,100,2013-02-24 15:35:00
9:55 AM,52.7,38.7,59,30.02,10.0,East,5.8,-,N/A,,Clear,80,2013-02-24 15:55:00
10:15 AM,54.5,39.6,57,30.01,10.0,ESE,4.6,-,N/A,,Clear,110,2013-02-24 16:15:00
10:35 AM,55.9,41.0,57,30.01,10.0,SSE,8.1,-,N/A,,Clear,150,2013-02-24 16:35:00
10:55 AM,57.2,41.9,57,29.99,10.0,ESE,8.1,-,N/A,,Clear,110,2013-02-24 16:55:00
11:15 AM,58.5,42.6,56,29.99,10.0,East,6.9,-,N/A,,Clear,100,2013-02-24 17:15:00
11:35 AM,59.9,42.8,53,29.98,10.0,SE,8.1,-,N/A,,Clear,140,2013-02-24 17:35:00
11:55 AM,59.9,43.3,54,29.98,10.0,SSE,4.6,-,N/A,,Clear,150,2013-02-24 17:55:00
12:15 PM,61.9,42.1,48,29.96,10.0,ESE,8.1,-,N/A,,Clear,110,2013-02-24 18:15:00
12:35 PM,63.0,43.3,49,29.95,10.0,SE,9.2,-,N/A,,Clear,130,2013-02-24 18:35:00
12:55 PM,63.5,43.0,47,29.93,10.0,SSE,6.9,-,N/A,,Clear,160,2013-02-24 18:55:00
1:15 PM,64.6,42.6,45,29.92,10.0,SE,9.2,-,N/A,,Clear,130,2013-02-24 19:15:00
1:35 PM,65.3,42.6,44,29.91,10.0,SE,5.8,-,N/A,,Clear,140,2013-02-24 19:35:00
1:55 PM,66.0,41.9,41,29.90,10.0,ESE,6.9,-,N/A,,Clear,120,2013-02-24 19:55:00
2:15 PM,66.6,42.1,41,29.88,10.0,SSE,6.9,-,N/A,,Clear,150,2013-02-24 20:15:00
2:35 PM,67.1,39.7,37,29.87,10.0,ESE,9.2,-,N/A,,Clear,110,2013-02-24 20:35:00
2:55 PM,68.2,39.2,35,29.85,10.0,East,9.2,-,N/A,,Clear,100,2013-02-24 20:55:00
3:15 PM,68.7,38.3,33,29.85,10.0,ESE,9.2,-,N/A,,Clear,120,2013-02-24 21:15:00
3:35 PM,68.9,37.2,31,29.85,10.0,SE,9.2,-,N/A,,Clear,140,2013-02-24 21:35:00
3:55 PM,67.3,37.9,34,29.85,10.0,SE,10.4,-,N/A,,Clear,130,2013-02-24 21:55:00
4:15 PM,66.4,37.4,34,29.84,10.0,SE,9.2,-,N/A,,Clear,130,2013-02-24 22:15:00
4:35 PM,66.7,39.4,37,29.82,10.0,ESE,6.9,-,N/A,,Clear,120,2013-02-24 22:35:00
4:55 PM,66.7,38.1,35,29.81,10.0,East,9.2,-,N/A,,Clear,100,2013-02-24 22:55:00
5:15 PM,66.6,39.7,37,29.82,10.0,ESE,6.9,-,N/A,,Clear,110,2013-02-24 23:15:00
5:35 PM,63.9,39.4,41,29.82,10.0,ESE,5.8,-,N/A,,Clear,110,2013-02-24 23:35:00
5:55 PM,62.6,39.6,43,29.82,10.0,ESE,4.6,-,N/A,,Clear,110,2013-02-24 23:55:00
6:15 PM,61.5,39.4,44,29.82,10.0,East,4.6,-,N/A,,Clear,100,2013-02-25 00:15:00
6:35 PM,60.8,40.1,46,29.82,10.0,East,5.8,-,N/A,,Clear,100,2013-02-25 00:35:00
6:55 PM,60.4,39.7,46,29.80,10.0,East,6.9,-,N/A,,Scattered Clouds,90,2013-02-25 00:55:00
7:15 PM,60.3,40.1,47,29.80,10.0,East,5.8,-,N/A,,Clear,90,2013-02-25 01:15:00
7:35 PM,59.2,40.6,50,29.79,10.0,ENE,5.8,-,N/A,,Clear,70,2013-02-25 01:35:00
7:55 PM,57.7,40.6,53,29.79,10.0,ENE,5.8,-,N/A,,Clear,70,2013-02-25 01:55:00
8:15 PM,56.8,41.2,56,29.80,10.0,East,5.8,-,N/A,,Clear,90,2013-02-25 02:15:00
8:35 PM,56.5,42.6,60,29.81,10.0,Calm,Calm,-,N/A,,Mostly Cloudy,0,2013-02-25 02:35:00
8:55 PM,56.7,42.1,58,29.81,10.0,Calm,Calm,-,N/A,,Mostly Cloudy,0,2013-02-25 02:55:00
9:15 PM,57.2,42.3,57,29.80,10.0,ENE,3.5,-,N/A,,Mostly Cloudy,60,2013-02-25 03:15:00
9:35 PM,56.7,42.4,59,29.79,10.0,Calm,Calm,-,N/A,,Overcast,0,2013-02-25 03:35:00
9:55 PM,56.5,41.4,57,29.78,10.0,ENE,6.9,-,N/A,,Mostly Cloudy,70,2013-02-25 03:55:00
10:15 PM,56.7,41.9,58,29.78,10.0,ENE,6.9,-,N/A,,Mostly Cloudy,70,2013-02-25 04:15:00
10:35 PM,56.7,42.6,59,29.77,10.0,East,4.6,-,N/A,,Overcast,80,2013-02-25 04:35:00
10:55 PM,56.7,42.6,59,29.77,10.0,East,4.6,-,N/A,,Overcast,100,2013-02-25 04:55:00
11:15 PM,56.7,43.0,60,29.76,10.0,East,4.6,-,N/A,,Overcast,100,2013-02-25 05:15:00
11:35 PM,56.5,43.3,61,29.76,10.0,Calm,Calm,-,N/A,,Overcast,0,2013-02-25 05:35:00
11:55 PM,56.5,43.7,62,29.75,10.0,ESE,3.5,-,N/A,,Overcast,120,2013-02-25 05:55:00